060  
FPUS82 KCHS 190827  
OPUCHS  
 
TEST   
..KCHS/KSAV GATEWAY OBSERVATIONS
 
TEST  
NATIONAL WEATHER SERVICE CHARLESTON SC  
400 AM EDT THU SEP 19 2019  
 
NOTE: "FAIR" INDICATES FEW OR NO CLOUDS BELOW 12,000 FEET WITH NO  
SIGNIFICANT WEATHER AND/OR OBSTRUCTIONS TO VISIBILITY.  
 
SCZ050-WAZ558-NCZ071-TXZ119-213-PAZ071-DCZ001-FLZ074-172-MI076-  
NYZ176-178-MAZ016-IL014-TNZ027-NJZ106-GAZ044-MD014-190900-  
   
..GATEWAY OBSERVATIONS FOR CHARLESTON INTERNATIONAL
 
 
 
CITY SKY/WX TMP DP RH WIND PRES REMARKS  
CHAS AIRPORT FAIR 65 56 72 NE10 30.13S  
SEATTLE CLEAR 55 50 83 NW3 30.01R  
CHARLOTTE FAIR 65 53 65 E9 30.23R  
DALLAS DFW PTCLDY 76 70 82 E9 29.88F  
DALLAS LOVE PTCLDY 77 70 79 E8 29.89F  
PHILLADELPHIA FAIR 56 45 66 NE7 30.32R  
WASH NATIONAL FAIR 61 54 77 NE6 30.29R  
BALTIMORE FAIR 59 50 72 E7 30.29R  
MIAMI FAIR 80 65 59 NE8 29.91F  
DETROIT FAIR 61 58 90 N3 30.18F FOG  
NEWARK FAIR 53 44 71 N8 30.32S  
LAGUARDIA FAIR 56 43 61 N7 30.32S  
J F K FAIR 49 43 80 NE7 30.34R  
BOSTON LOGAN FAIR 51 41 68 NW9 30.33R  
FT. LAUDERDALE FAIR 79 63 57 NE16G22 29.90F  
CHICAGO O'HARE FAIR 67 58 72 S5 30.08F  
CHICAGO MIDWAY FAIR 69 56 62 SE7 30.08F  
HOUSTON BUSH CLOUDY 80 77 90 SW7 29.83F  
HOUSTON HOBBY CLOUDY 81 78 91 SW10 29.84S  
NASHVILLE FAIR 70 63 78 S6 30.04S  
ATLANTA FAIR 70 57 63 E8 30.14S  
LONDON HEATHRW N/A 55 46 71 VRB2 30.48S  
 

 
 
GAZ044-118-TXZ119-213-NCZ071-DCZ001-MDZ014-506-PAZ021-071-NJZ106-  
NYZ176-178-MAZ106-OHZ011-021-055-MIZ076-KYZ091-ILZ014-INZ047-  
MNZ060-ONZ431-190900-  
   
..GATEWAY OBSERVATIONS FOR SAVANNAH INTERNATIONAL
 
 
 
CITY SKY/WX TMP DP RH WIND PRES REMARKS  
SAVANNAH ARPT MOCLDY 70 64 81 N8 30.10S  
ATLANTA FAIR 70 57 63 E8 30.14S  
CHARLOTTE FAIR 65 53 65 E9 30.23R  
DALLAS DFW PTCLDY 76 70 82 E9 29.88F  
HOUSTON BUSH CLOUDY 80 77 90 SW7 29.83F  
WASH NATIONAL FAIR 61 54 77 NE6 30.29R  
WASH DULLES FAIR 53 50 89 NW3 30.30R  
BALTIMORE FAIR 59 50 72 E7 30.29R  
PHILADELPHIA FAIR 56 45 66 NE7 30.32R  
NEWARK FAIR 53 44 71 N8 30.32S  
LAGUARDIA FAIR 56 43 61 N7 30.32S  
J F K FAIR 49 43 80 NE7 30.34R  
BOSTON FAIR 51 41 68 NW9 30.33R  
PITTSBURG FAIR 56 44 64 CALM 30.23S  
AKRON FAIR 60 44 55 SE7 30.20F  
CLEVELAND FAIR 63 43 48 SE9 30.21S  
CINCINNATI MOCLDY 67 50 54 E7 30.08F  
COLUMBUS FAIR 56 47 71 NE6 30.14R  
DETROIT FAIR 61 58 90 N3 30.18F FOG  
CHICAGO O'HARE FAIR 67 58 72 S5 30.08F  
MINNEAPOLIS FAIR 67 63 87 SW3 29.95S  
INDIANAPOLIS FAIR 67 51 56 E8 30.09S  
TORONTO CANADA MOCLDY 61 55 82 E5 30.25S  
 

 
 
 
CLICK HERE TO GO TO PREVIOUS BULLETINS.

The Nexlab SC Page
The Nexlab GA Page Main Text Page